Location: Hurecourt
(47.9030°N, 6.0653°E)
Time: 10:58:37
(UTC+00:00)

Cosmos 1980 Rocket - Pass Details

Date: 14 July 2020
Orbit: 828 x 851 km, 71.0° (Epoch: 05 August)

Event Time Altitude Azimuth Distance (km) Brightness Sun altitude
Rises 01:39:41 0° 334° (NNW) 3,429 5.9 -15.6°
Reaches altitude 10° 01:42:11 10° 337° (NNW) 2,489 5.2 -15.4°
Maximum altitude 01:47:52 62° 59° (ENE) 956 2.7 -14.9°
Drops below altitude 10° 01:53:29 10° 140° (SE) 2,466 4.4 -14.4°
Sets 01:55:57 0° 143° (SE) 3,395 5.1 -14.2°
